Regional Weather Roundup
Issued by NWS Portland, ME

Current Version | Previous Version | Graphics & Text | Print | Product List | Glossary On
Versions: 1 2 3 4 5 6 7 8 9 10 11 12 13 14 15 16 17 18 19 20 21 22 23 24 25 26 27 28 29 30 31 32 33 34 35 36 37 38 39 40 41 42 43 44 45 46 47 48 49 50
000
ASUS41 KGYX 230410
RWRGYX
WEATHER ROUNDUP FOR MAINE AND NEW HAMPSHIRE
NATIONAL WEATHER SERVICE GRAY ME
1200 AM EDT THU OCT 23 2014

MEZ002-005-006-010-012-015-018-020-021-024-026-027-029-230500-
MAINE

CITY           SKY/WX    TMP DP  RH WIND       PRES   REMARKS
PORTLAND       RAIN      48  45  89 NE18G29   29.97F FOG
SANFORD        CLOUDY    46  39  76 NE21G33   29.94F
BAR HARBOR     CLOUDY    48  46  93 NE15G23   30.04F
WISCASSET      CLOUDY    48  45  89 NE12G21   30.00F
ROCKLAND       CLOUDY    48  46  93 NE16G33   29.99F
FRYEBURG       LGT RAIN  47  43  86 NE17G25   30.03F
LEWISTONAUBURN CLOUDY    45  41  87 N16G28    30.02F
AUGUSTA        CLOUDY    44  43  96 NE22G28   30.05F
WATERVILLE     CLOUDY    45  39  81 NE15G25   30.04F
BANGOR         DRIZZLE   46  44  93 NE16      30.11F
GREENVILLE       N/A     43  39  86 NE10G20   30.12F
MILLINOCKET    LGT RAIN  44  41  89 NE10G18   30.21F FOG
HOULTON        CLOUDY    43  40  89 NE15      30.22F
PRESQUE ISLE   CLOUDY    45  34  65 NE9       30.28S
FRENCHVILLE    MOCLDY    39  32  76 NE17G23   30.29F
CARIBOU        MOCLDY    43  35  73 NE8       30.28S
$$

NHZ002-005-008-009-011-012-014-230500-
NEW HAMPSHIRE

CITY           SKY/WX    TMP DP  RH WIND       PRES   REMARKS
PORTSMOUTH     LGT RAIN  48  46  91 N18G29    29.87F
ROCHESTER      LGT RAIN  47  44  90 NE16G26   29.92F
NASHUA         LGT RAIN  48  46  93 N10       29.88F
MANCHESTER     LGT RAIN  48  44  86 N22       29.87F FOG
CONCORD        LGT RAIN  47  45  93 N10G22    29.92F
LACONIA        CLOUDY    46  43  87 NE16G26   29.95F
PLYMOUTH       CLOUDY    53  48  85 NE3       29.97F
BERLIN         CLOUDY    45  43  93 N12       30.06F
WHITEFIELD     CLOUDY    48  45  89 NE7       30.03F
JAFFREY        RAIN      45  44  97 N8        29.88F FOG
LEBANON        CLOUDY    50  44  80 N10       29.96F
MT WASHINGTON  FRZ RAIN  32  32 100 E64G71      N/A  VSB 0   WCI  13
$$

VTZ005-007-008-230500-
VERMONT

CITY           SKY/WX    TMP DP  RH WIND       PRES   REMARKS
ST JOHNSBURY     N/A     49  42  77 MISG      30.02F
MONTPELIER     CLOUDY    47  40  76 N12       30.04F
BURLINGTON     CLOUDY    48  37  65 N15       30.07F
$$

MAZ007-012-024-CTZ003-RIZ002-NYZ038-NYZ072-230500-
SOUTHERN NEW ENGLAND AND NY

CITY           SKY/WX    TMP DP  RH WIND       PRES   REMARKS
BOSTON         LGT RAIN  50  50 100 NE36G48   29.77F FOG
WORCESTER      LGT RAIN  45  44  97 N16G33    29.81F FOG
NANTUCKET      CLOUDY    61  59  93 E13       29.64F
PROVIDENCE     LGT RAIN  52  50  93 N15G29    29.74S
HARTFORD       LGT RAIN  50  46  86 N15G22    29.81S
ALBANY         CLOUDY    52  43  71 N16G28    29.92F
NEW YORK CITY  CLOUDY    52  47  83 N16G29    29.73S
$$

ANZ081-ANZ082-ANZ150-NHZ014-MEZ023>029-230500-
COASTAL MARINE OBSERVATIONS

STATION/POSITION TIME  TEMP    WIND        PRES    WAVE
                       AIR SEA DIR/SP/G            HT/PER
                 (UTC) (F)     (DEG/KT/KT) (MB)    (FT/S)
MOUNT DESERT ROC 0400   53                 1013.0F
MATINICUS ROCK   0400           50/ 37/ 44 1012.9F
PORTLAND WX BUOY 0350   50 54   40/ 27/ 33 1012.8F  10/ 9
WELLS            0300   48 51   30/ 17/ 25 1013.3F
ISLE OF SHOALS   0400   50      40/ 45/ 51 1008.8F
JEFFREYS LEDGE   0321      55                N/A    21/10
CASHES LEDGE BUO 0350   54 55   50/ 31/ 37 1009.6F  19/ 9
$$

.............KEY..............
   WCI - WIND CHILL
   TC  - TEMPERATURE IN CELSIUS
   VSB - VISIBILITY IN MILES
   HX  - HEAT INDEX
   FAIR- INDICATES FEW OR NO CLOUDS BELOW 12,000 FT, WITH NO
         SIGNIFICANT WEATHER AND/OR OBSTRUCTIONS TO VISIBILITY.





USA.gov is the U.S. government's official web portal to all federal, state and local government web resources and services.